Location: Irma
(52.9170°N, 111.2330°W)
Time: 08:36:40
(UTC-06:00)

Amateur Radio Satellites - All Passes

Search period start: 24 July 2014 08:06
Search period end: 25 July 2014 08:06
Location: Irma, 52.9170°N, 111.2330°W

Satellite Date Start Highest point End Downlink Frequencies (MHz)
Time Altitude Azimuth
Sapphire 24 Jul 08:14:17 08:18:15 20° 12° (NNE) 08:22:13 437.095 MHz 1200 baud AX-25 AFSK
STRAND 1 24 Jul 08:17:46 08:22:06 27° 267° (W) 08:26:27 ?
SO-67 24 Jul 08:17:58 08:21:13 35° 97° (E) 08:24:26 435.3500 MHz FM
HO-68 24 Jul 08:35:12 08:35:39 10° 77° (ENE) 08:36:06 435.675 MHz FM
PCSat 24 Jul 08:48:33 08:52:57 24° 22° (NNE) 08:57:19 145.825 MHz
ISS 24 Jul 08:57:51 08:59:09 12° 221° (SW) 09:00:27 145.800 FM
Hamsat 24 Jul 08:59:23 09:02:43 22° 299° (WNW) 09:06:02 145.90 MHz
JAS-1B 24 Jul 09:02:01 09:05:56 13° 346° (NNW) 09:09:50 435.800 - 435.900 CW/SSB
MaSat-1 24 Jul 09:16:07 09:20:34 28° 252° (WSW) 09:24:57 437.345 MHz
JAS-2 24 Jul 09:34:58 09:40:35 31° 305° (NW) 09:45:39 435.800 - 435.900 CW/SSB, 435.910 FM
AO-7 24 Jul 09:36:23 09:41:39 19° 330° (NNW) 09:46:54 29.400 - 29.500 MHz
KITSAT 1 24 Jul 09:45:41 09:53:45 67° 318° (NW) 10:01:52 435.175 FM
SO-67 24 Jul 09:51:23 09:54:09 22° 296° (WNW) 09:56:55 435.3500 MHz FM
Sapphire 24 Jul 09:57:59 10:03:07 41° 37° (NE) 10:08:14 437.095 MHz 1200 baud AX-25 AFSK
Saudisat 1A 24 Jul 10:01:38 10:05:52 45° 125° (SE) 10:10:06 436.775 MHz
Oscar 11 24 Jul 10:05:52 10:08:23 15° 88° (E) 10:10:54 145.825 FM, Beacon 2401.500 USB
HO-68 24 Jul 10:18:20 10:25:15 49° 100° (E) 10:32:07 435.675 MHz FM
PCSat 24 Jul 10:31:59 10:37:24 63° 46° (NE) 10:42:47 145.825 MHz
JAS-1B 24 Jul 10:48:42 10:52:25 13° 13° (NNE) 10:56:09 435.800 - 435.900 CW/SSB
UKube-1 24 Jul 10:49:54 10:54:15 62° 103° (ESE) 10:58:34 145.840 MHz, 145.915 MHz
AO-7 24 Jul 11:28:50 11:31:15 12° 358° (N) 11:33:39 29.400 - 29.500 MHz
Oscar 11 24 Jul 11:40:48 11:45:09 78° 287° (WNW) 11:49:28 145.825 FM, Beacon 2401.500 USB
Saudisat 1A 24 Jul 11:41:20 11:45:33 41° 326° (NW) 11:49:46 436.775 MHz
Sapphire 24 Jul 11:41:28 11:46:46 55° 239° (WSW) 11:52:03 437.095 MHz 1200 baud AX-25 AFSK
KITSAT 1 24 Jul 11:43:20 11:50:39 35° 345° (NNW) 11:57:59 435.175 FM
FUNcube-1 24 Jul 11:47:53 11:51:59 52° 100° (E) 11:56:03 145.950 - 145.970 MHz USB
Oscar 16 24 Jul 12:01:26 12:04:18 15° 50° (NE) 12:07:10 437.025 USB, Beacon 2401.1428
HO-68 24 Jul 12:06:14 12:13:00 47° 301° (WNW) 12:19:45 435.675 MHz FM
ITAMSAT 1 24 Jul 12:13:43 12:14:55 11° 44° (NE) 12:16:07 435.822 SSB
PCSat 24 Jul 12:15:49 12:20:33 31° 247° (WSW) 12:25:14 145.825 MHz
UKube-1 24 Jul 12:26:48 12:30:06 21° 302° (WNW) 12:33:23 145.840 MHz, 145.915 MHz
AO-27 24 Jul 12:29:50 12:32:28 14° 48° (NE) 12:35:06 436.795 MHz FM
AO-Echo 24 Jul 12:30:41 12:33:24 14° 48° (NE) 12:36:08 ?
Uribyol 2 24 Jul 12:32:30 12:35:21 15° 49° (NE) 12:38:11 436.500 FM
JAS-1B 24 Jul 12:32:33 12:39:30 25° 38° (NE) 12:46:45 435.800 - 435.900 CW/SSB
Oscar 19 24 Jul 13:10:37 13:15:23 42° 64° (ENE) 13:20:12 437.125 CW, 437.150 USB
AO-7 24 Jul 13:16:01 13:20:43 17° 25° (NNE) 13:25:24 29.400 - 29.500 MHz
Oscar 11 24 Jul 13:18:30 13:20:39 14° 306° (NW) 13:22:48 145.825 FM, Beacon 2401.500 USB
Saudisat 1A 24 Jul 13:22:56 13:26:12 20° 349° (N) 13:29:29 436.775 MHz
FUNcube-1 24 Jul 13:24:54 13:28:08 22° 300° (WNW) 13:31:21 145.950 - 145.970 MHz USB
Sapphire 24 Jul 13:28:08 13:29:02 10° 259° (W) 13:29:56 437.095 MHz 1200 baud AX-25 AFSK
Oscar 16 24 Jul 13:37:43 13:42:48 69° 70° (ENE) 13:47:55 437.025 USB, Beacon 2401.1428
KITSAT 1 24 Jul 13:41:01 13:48:21 35° 15° (NNE) 13:55:39 435.175 FM
TMSAT-1 24 Jul 13:41:18 13:44:40 17° 51° (NE) 13:48:01 436.925 FM
SO-50 24 Jul 13:41:45 13:43:48 13° 110° (ESE) 13:45:52 436.795 FM
ITAMSAT 1 24 Jul 13:48:17 13:53:13 45° 65° (ENE) 13:58:10 435.822 SSB
HO-68 24 Jul 13:55:09 13:59:08 16° 324° (NW) 14:03:07 435.675 MHz FM
RS-15 24 Jul 14:00:48 14:09:46 30° 105° (ESE) 14:18:36 29.354 - 29.394 USB, Beacon 29.352 USB
Gurwin Techsat 1B 24 Jul 14:00:54 14:05:23 29° 58° (ENE) 14:09:52 435.225 FM
AO-27 24 Jul 14:05:53 14:11:02 61° 68° (ENE) 14:16:12 436.795 MHz FM
AO-Echo 24 Jul 14:05:59 14:11:11 60° 69° (ENE) 14:16:27 ?
Uribyol 2 24 Jul 14:08:47 14:13:56 65° 69° (ENE) 14:19:06 436.500 FM
JAS-1B 24 Jul 14:19:20 14:28:07 61° 62° (ENE) 14:37:46 435.800 - 435.900 CW/SSB
Uosat F 24 Jul 14:24:33 14:26:10 12° 45° (NE) 14:27:47 435.120 FM
Oscar 19 24 Jul 14:50:08 14:54:50 36° 264° (W) 14:59:34 437.125 CW, 437.150 USB
AO-7 24 Jul 15:03:49 15:11:21 40° 50° (NE) 15:18:54 29.400 - 29.500 MHz
Saudisat 1A 24 Jul 15:03:51 15:07:14 21° 14° (NNE) 15:10:36 436.775 MHz
TMSAT-1 24 Jul 15:18:30 15:23:48 76° 71° (ENE) 15:29:08 436.925 FM
Oscar 16 24 Jul 15:18:46 15:22:40 22° 270° (W) 15:26:36 437.025 USB, Beacon 2401.1428
SO-50 24 Jul 15:19:04 15:23:32 71° 130° (SE) 15:28:08 436.795 FM
ITAMSAT 1 24 Jul 15:28:06 15:32:51 35° 264° (W) 15:37:38 435.822 SSB
KITSAT 1 24 Jul 15:37:09 15:45:15 67° 42° (NE) 15:53:17 435.175 FM
Gurwin Techsat 1B 24 Jul 15:39:49 15:45:04 60° 259° (WSW) 15:50:21 435.225 FM
AO-Echo 24 Jul 15:45:53 15:50:20 27° 269° (W) 15:54:49 ?
AO-27 24 Jul 15:46:39 15:50:57 25° 268° (W) 15:55:16 436.795 MHz FM
Uribyol 2 24 Jul 15:49:46 15:53:53 23° 269° (W) 15:58:01 436.500 FM
Uosat F 24 Jul 15:59:01 16:03:53 50° 66° (ENE) 16:08:45 435.120 FM
UOSAT-12 24 Jul 16:08:12 16:11:57 25° 117° (ESE) 16:15:45 437.025 FM, 437.400 FM
RS-15 24 Jul 16:09:36 16:20:40 85° 131° (SE) 16:31:39 29.354 - 29.394 USB, Beacon 29.352 USB
JAS-1B 24 Jul 16:10:19 16:18:51 49° 266° (W) 16:28:21 435.800 - 435.900 CW/SSB
JAS-2 24 Jul 16:24:14 16:29:23 20° 46° (NE) 16:34:17 435.800 - 435.900 CW/SSB, 435.910 FM
OPAL 24 Jul 16:27:52 16:31:15 18° 91° (E) 16:34:39 ?
Saudisat 1A 24 Jul 16:43:29 16:47:48 48° 37° (NE) 16:52:04 436.775 MHz
Hamsat 24 Jul 16:48:46 16:50:51 14° 55° (NE) 16:52:55 145.90 MHz
AO-7 24 Jul 16:55:22 17:03:44 71° 253° (WSW) 17:12:08 29.400 - 29.500 MHz
SO-50 24 Jul 17:00:24 17:04:30 32° 332° (NNW) 17:08:42 436.795 FM
TMSAT-1 24 Jul 17:00:27 17:04:20 20° 271° (W) 17:08:15 436.925 FM
Gurwin Techsat 1B 24 Jul 17:25:17 17:26:12 10° 279° (W) 17:27:06 435.225 FM
KITSAT 1 24 Jul 17:32:54 17:40:24 44° 245° (WSW) 17:47:52 435.175 FM
Uosat F 24 Jul 17:38:30 17:42:54 30° 266° (W) 17:47:20 435.120 FM
UOSAT-12 24 Jul 17:47:04 17:51:43 70° 317° (NW) 17:56:28 437.025 FM, 437.400 FM
JAS-2 24 Jul 18:05:35 18:13:15 62° 67° (ENE) 18:20:25 435.800 - 435.900 CW/SSB, 435.910 FM
OPAL 24 Jul 18:05:43 18:10:46 83° 290° (WNW) 18:15:52 ?
JAS-1B 24 Jul 18:08:11 18:12:08 13° 291° (WNW) 18:16:14 435.800 - 435.900 CW/SSB
Hamsat 24 Jul 18:21:59 18:26:10 83° 75° (ENE) 18:30:24 145.90 MHz
Saudisat 1A 24 Jul 18:23:16 18:27:20 36° 238° (WSW) 18:31:21 436.775 MHz
RS-15 24 Jul 18:23:30 18:34:08 51° 340° (NNW) 18:44:49 29.354 - 29.394 USB, Beacon 29.352 USB
SO-50 24 Jul 18:42:58 18:46:22 20° 357° (N) 18:49:48 436.795 FM
STRAND 1 24 Jul 18:44:08 18:45:54 12° 83° (E) 18:47:39 ?
AO-7 24 Jul 18:52:33 18:58:06 19° 276° (W) 19:03:41 29.400 - 29.500 MHz
SO-67 24 Jul 18:56:59 19:00:07 32° 68° (ENE) 19:03:16 435.3500 MHz FM
HO-68 24 Jul 19:08:19 19:13:24 21° 43° (NE) 19:18:29 435.675 MHz FM
UOSAT-12 24 Jul 19:28:42 19:32:39 26° 340° (NNW) 19:36:38 437.025 FM, 437.400 FM
OPAL 24 Jul 19:45:39 19:49:01 18° 310° (NW) 19:52:23 ?
JAS-2 24 Jul 19:51:22 19:58:34 39° 266° (W) 20:05:25 435.800 - 435.900 CW/SSB, 435.910 FM
Hamsat 24 Jul 20:00:40 20:02:45 13° 274° (W) 20:04:51 145.90 MHz
UKube-1 24 Jul 20:16:42 20:19:48 19° 57° (ENE) 20:22:56 145.840 MHz, 145.915 MHz
STRAND 1 24 Jul 20:20:58 20:26:06 68° 103° (ESE) 20:31:11 ?
SO-50 24 Jul 20:24:24 20:28:21 26° 21° (NNE) 20:32:21 436.795 FM
SO-67 24 Jul 20:30:25 20:33:16 23° 266° (W) 20:36:08 435.3500 MHz FM
RS-15 24 Jul 20:38:35 20:49:05 48° 13° (NNE) 20:59:45 29.354 - 29.394 USB, Beacon 29.352 USB
HO-68 24 Jul 20:52:53 20:59:59 67° 65° (ENE) 21:07:06 435.675 MHz FM
Oscar 11 24 Jul 21:06:27 21:10:01 26° 62° (ENE) 21:13:36 145.825 FM, Beacon 2401.500 USB
UOSAT-12 24 Jul 21:10:42 21:14:14 20° 5° (N) 21:17:47 437.025 FM, 437.400 FM
FUNcube-1 24 Jul 21:16:08 21:18:35 15° 56° (NE) 21:21:01 145.950 - 145.970 MHz USB
UKube-1 24 Jul 21:51:13 21:55:35 70° 256° (WSW) 21:59:59 145.840 MHz, 145.915 MHz
STRAND 1 24 Jul 22:00:49 22:04:54 25° 303° (WNW) 22:08:58 ?
SO-50 24 Jul 22:04:54 22:09:38 74° 43° (NE) 22:14:25 436.795 FM
Oscar 11 24 Jul 22:41:52 22:46:01 46° 261° (W) 22:50:12 145.825 FM, Beacon 2401.500 USB
HO-68 24 Jul 22:41:53 22:48:13 33° 266° (W) 22:54:35 435.675 MHz FM
FUNcube-1 24 Jul 22:50:04 22:54:26 90° 104° (ESE) 22:58:43 145.950 - 145.970 MHz USB
UOSAT-12 24 Jul 22:51:20 22:55:40 34° 28° (NNE) 22:59:59 437.025 FM, 437.400 FM
RS-15 24 Jul 22:51:59 23:03:02 82° 44° (NE) 23:14:23 29.354 - 29.394 USB, Beacon 29.352 USB
MaSat-1 24 Jul 23:12:47 23:16:48 47° 115° (ESE) 23:21:27 437.345 MHz
UKube-1 24 Jul 23:32:25 23:32:38 10° 276° (W) 23:32:52 145.840 MHz, 145.915 MHz
SO-50 24 Jul 23:46:03 23:49:49 24° 243° (WSW) 23:53:38 436.795 FM
FUNcube-1 25 Jul 00:29:31 00:31:28 13° 274° (W) 00:33:25 145.950 - 145.970 MHz USB
UOSAT-12 25 Jul 00:31:28 00:36:13 70° 230° (SW) 00:40:54 437.025 FM, 437.400 FM
MaSat-1 25 Jul 00:50:17 00:54:22 35° 319° (NW) 00:58:58 437.345 MHz
RS-15 25 Jul 01:04:45 01:14:32 40° 249° (WSW) 01:24:38 29.354 - 29.394 USB, Beacon 29.352 USB
PCSat 25 Jul 01:22:43 01:25:27 14° 104° (ESE) 01:28:10 145.825 MHz
ISS 25 Jul 01:44:11 01:45:16 11° 139° (SE) 01:46:21 145.800 FM
Oscar 16 25 Jul 01:44:25 01:47:28 16° 86° (E) 01:50:30 437.025 USB, Beacon 2401.1428
JAS-1B 25 Jul 02:00:16 02:05:29 15° 72° (ENE) 02:10:24 435.800 - 435.900 CW/SSB
Lituanica SAT-1 25 Jul 02:06:32 02:08:28 31° 162° (SSE) 02:10:25 437.275 MHz beacon
AO-Echo 25 Jul 02:09:11 02:11:21 13° 83° (E) 02:13:30 ?
OPAL 25 Jul 02:12:36 02:15:07 14° 45° (NE) 02:17:38 ?
UOSAT-12 25 Jul 02:13:16 02:15:34 14° 250° (WSW) 02:17:51 437.025 FM, 437.400 FM
AO-27 25 Jul 02:14:23 02:16:54 14° 84° (E) 02:19:24 436.795 MHz FM
Uribyol 2 25 Jul 02:16:45 02:19:34 15° 85° (E) 02:22:23 436.500 FM
Sapphire 25 Jul 02:29:09 02:34:09 39° 116° (ESE) 02:39:10 437.095 MHz 1200 baud AX-25 AFSK
MaSat-1 25 Jul 02:30:29 02:33:14 15° 343° (NNW) 02:36:08 437.345 MHz
Oscar 19 25 Jul 02:54:50 02:59:53 52° 100° (E) 03:04:55 437.125 CW, 437.150 USB
PCSat 25 Jul 03:02:32 03:07:55 69° 124° (SE) 03:13:20 145.825 MHz
ISS 25 Jul 03:18:09 03:21:18 38° 157° (SSE) 03:24:28 145.800 FM
Oscar 16 25 Jul 03:22:25 03:27:37 86° 106° (ESE) 03:32:47 437.025 USB, Beacon 2401.1428
TMSAT-1 25 Jul 03:28:58 03:32:45 20° 88° (E) 03:36:32 436.925 FM
ITAMSAT 1 25 Jul 03:34:06 03:39:13 54° 101° (E) 03:44:16 435.822 SSB
Lituanica SAT-1 25 Jul 03:38:52 03:40:58 61° 181° (S) 03:43:04 437.275 MHz beacon
AO-Echo 25 Jul 03:45:55 03:51:09 72° 103° (ESE) 03:56:10 ?
OPAL 25 Jul 03:48:15 03:53:07 61° 66° (ENE) 03:58:01 ?
JAS-1B 25 Jul 03:48:51 03:58:29 55° 97° (E) 04:07:01 435.800 - 435.900 CW/SSB
Gurwin Techsat 1B 25 Jul 03:49:50 03:54:44 36° 95° (E) 03:59:36 435.225 FM
AO-27 25 Jul 03:52:06 03:57:21 76° 105° (ESE) 04:02:32 436.795 MHz FM
Uribyol 2 25 Jul 03:54:42 03:59:55 82° 106° (ESE) 04:05:04 436.500 FM
MaSat-1 25 Jul 04:10:30 04:12:44 13° 7° (N) 04:15:02 437.345 MHz
Sapphire 25 Jul 04:12:13 04:17:30 52° 318° (NW) 04:22:50 437.095 MHz 1200 baud AX-25 AFSK
Oscar 19 25 Jul 04:34:34 04:39:03 31° 300° (WNW) 04:43:31 437.125 CW, 437.150 USB
PCSat 25 Jul 04:46:49 04:51:46 35° 326° (NNW) 04:56:45 145.825 MHz
AO-7 25 Jul 04:50:23 04:57:25 29° 91° (E) 05:04:21 29.400 - 29.500 MHz
ISS 25 Jul 04:54:27 04:57:49 72° 177° (S) 05:01:11 145.800 FM
Oscar 16 25 Jul 05:02:42 05:06:23 20° 306° (NW) 05:10:03 437.025 USB, Beacon 2401.1428
TMSAT-1 25 Jul 05:08:00 05:13:20 79° 288° (WNW) 05:18:37 436.925 FM
Lituanica SAT-1 25 Jul 05:11:32 05:13:26 28° 200° (SSW) 05:15:20 437.275 MHz beacon
ITAMSAT 1 25 Jul 05:14:01 05:18:29 30° 301° (WNW) 05:22:55 435.822 SSB
AO-Echo 25 Jul 05:25:23 05:29:26 24° 304° (NW) 05:33:24 ?
OPAL 25 Jul 05:28:28 05:32:25 24° 266° (W) 05:36:23 ?
Gurwin Techsat 1B 25 Jul 05:29:48 05:34:50 44° 295° (WNW) 05:39:50 435.225 FM
AO-27 25 Jul 05:32:23 05:36:23 23° 305° (NW) 05:40:21 436.795 MHz FM
Uribyol 2 25 Jul 05:35:02 05:38:51 21° 306° (NW) 05:42:39 436.500 FM
Uosat F 25 Jul 05:39:06 05:44:04 55° 101° (E) 05:48:59 435.120 FM
JAS-1B 25 Jul 05:39:31 05:48:58 54° 301° (WNW) 05:57:31 435.800 - 435.900 CW/SSB
MaSat-1 25 Jul 05:47:55 05:52:00 22° 31° (NNE) 05:56:08 437.345 MHz
Sapphire 25 Jul 05:57:58 06:02:09 22° 342° (NNW) 06:06:20 437.095 MHz 1200 baud AX-25 AFSK
Hamsat 25 Jul 06:04:14 06:05:00 10° 84° (E) 06:05:46 145.90 MHz
STRAND 1 25 Jul 06:04:44 06:09:17 33° 61° (ENE) 06:13:51 ?
KITSAT 1 25 Jul 06:16:31 06:20:44 15° 98° (E) 06:24:57 435.175 FM
ISS 25 Jul 06:31:08 06:34:25 50° 197° (SSW) 06:37:42 145.800 FM
PCSat 25 Jul 06:32:56 06:36:46 19° 352° (N) 06:40:37 145.825 MHz
AO-7 25 Jul 06:42:46 06:51:10 84° 293° (WNW) 06:59:29 29.400 - 29.500 MHz
TMSAT-1 25 Jul 06:49:04 06:52:30 18° 309° (NW) 06:55:56 436.925 FM
JAS-2 25 Jul 06:54:56 07:00:25 29° 89° (E) 07:05:21 435.800 - 435.900 CW/SSB, 435.910 FM
Gurwin Techsat 1B 25 Jul 07:12:21 07:13:34 11° 317° (NW) 07:14:47 435.225 FM
Uosat F 25 Jul 07:18:21 07:22:37 28° 301° (WNW) 07:26:51 435.120 FM
MaSat-1 25 Jul 07:25:00 07:30:18 68° 52° (NE) 07:35:34 437.345 MHz
JAS-1B 25 Jul 07:30:32 07:37:22 22° 325° (NW) 07:43:54 435.800 - 435.900 CW/SSB
Hamsat 25 Jul 07:37:28 07:41:45 75° 103° (ESE) 07:46:04 145.90 MHz
STRAND 1 25 Jul 07:43:23 07:48:21 48° 261° (W) 07:53:21 ?
Sapphire 25 Jul 07:43:41 07:47:31 19° 8° (N) 07:51:21 437.095 MHz 1200 baud AX-25 AFSK
SO-67 25 Jul 07:48:21 07:50:46 18° 91° (E) 07:53:10 435.3500 MHz FM
